Das Wetter in  D-61279 Heinzenberg / Taunus





Wetter Minimum- & Maximum-Werte im Februar 2018

Standort: Heinzenberg / Taunus - Höhe 297 m         8° 24' 1" Ost 50° 21' 51" Nord
(   3-stündige Aktualisierung    letzte Aktualisierung um 20:46 am 28.02.2018  )


Messgrösse

Minimum

Maximum

Durchschnitt

Temperatur West /
Luftfeuchte West
Anklicken für Monats-Diagramm

-12,3 °C

03:42
28.02.2018

31 %

15:39
25.02.2018

8,3 °C

14:43
18.02.2018

92 %

10:26
16.02.2018

Temp

-1,6 °C

Feuchte

74 %

Temperatur Ost /
Luftfeuchte Ost
Anklicken für Monats-Diagramm

-12,3 °C

07:52
28.02.2018

--

--
--

8,5 °C

14:38
18.02.2018

--

--
--

-1,5 °C

--

Luftdruck Anklicken für Monats-Diagramm

1000,1 hPa

00:03
01.02.2018

1028,7 hPa

07:19
25.02.2018

1017,5 hPa

Taupunkt

-18,2 °C

03:42
28.02.2018

2,5 °C

12:46
16.02.2018

-5,7 °C

Windchill
( gefühlte Temperatur )

-24,4 °C

08:56
27.02.2018

8,3 °C

14:43
18.02.2018

-3,3 °C

Windgeschwindigkeit /
Windrichtung
Anklicken für Monats-Diagramm

---

38,8 km/h / W-SW

11:06
11.02.2018

4,5 km/h
W-SW

Helligkeit /
Sonnenschein
Anklicken für Monats-Diagramm
Anklicken für Monats-Diagramm

Sonnenschein:

127:08 Stunden

Max: 9:20 Std am
27.02.2018

80,4 klux

13:01
11.02.2018

21,8 klux

Solarstrahlung Anklicken für Monats-Diagramm

---

550 W/m²

13:01
11.02.2018

165 W/m²

Regenmenge
    Februar 2018
Anklicken für Monats-Diagramm

Insgesamt 10,9 l/m²

in 52:34 Stunden
an 13 Tagen

3,0 l/m²

06:41
11.02.2018

Gesamtmenge

10,9 l/m²

Regen-Tage
    Februar 2018
Anklicken für Monats-Diagramm

>   0 mm/Tag

>   2 mm/Tag

>   5 mm/Tag

> 10 mm/Tag

> 20 mm/Tag

13 Tage     
2 Tage     
0 Tage     
0 Tage     
0 Tage     

Eisige Tage Februar 2018 / 2017

Tmin ≤ -10°C     

2 Tage

/

0 Tage

Eistage Februar 2018 / 2017

Tmax <     0°C     

5 Tage

/

  1 Tag

Frosttage Februar 2018 / 2017

Tmin ≤     0°C     

27 Tage

/

14 Tage

Kalte Tage Februar 2018 / 2017

Tmax <   10°C     

28 Tage

/

21 Tage

Warme Tage Februar 2018 / 2017

Tmax ≥   20°C     

0 Tage

/

0 Tage

Sommertage Februar 2018 / 2017

Tmax ≥   25°C     

0 Tage

/

0 Tage

Heisse Tage Februar 2018 / 2017

Tmax ≥   30°C     

0 Tage

/

0 Tage


Monatsdiagramm Februar 2018

Die Kurven zeigen den Durchschnittswert des jeweiligen Tages an


Wetter-Monatsübersicht Februar 2018
Datum
  Temperatur
   Luftdruck
   Wind
  Regen
   Luftfeuchte
   Helligkeit

Sonnen-
schein

Ø
Temp.

Min.
Temp.

Max.
Temp.

Ø
Luftdruck

Min.
Luftdruck

Max.
Luftdruck

Ø-Geschw.
Haupt-Richtg.

Max.
Wind

Menge /
Dauer

Ø
Feuchte

Min.
Feuchte

Max.
Feuchte

Ø
Helligkeit

Max.
Helligkeit

1.
Februar
1,7 °C0,1 °C
23:30
4,1 °C
15:09
1001,9 hPa1000,1 hPa
00:03
1003,6 hPa
23:30
14,6 km/h
W-SW
36,7 km/h
11:54  
1,4 l/m²
3:05 Stunden
84 %70 %
15:14
91 %
00:13
17,2 klux60,0 klux
12:54
3:10 Std 
2.
Februar
1,2 °C-0,3 °C
01:55
2,3 °C
15:55
1004,1 hPa1002,5 hPa
06:35
1006,5 hPa
23:51
13,1 km/h
W-SW
28,1 km/h
13:20  
2,6 l/m²
8:37 Stunden
88 %84 %
05:30
91 %
21:55
8,4 klux24,1 klux
11:35
--- 
3.
Februar
1,3 °C-1,1 °C
23:57
3,8 °C
12:36
1006,4 hPa1005,2 hPa
12:36
1009,0 hPa
23:57
4,2 km/h
W-NW
20,5 km/h
03:01  
---
85 %72 %
12:41
91 %
00:01
19,3 klux55,1 klux
12:06
3:30 Std 
4.
Februar
-0,9 °C-2,0 °C
22:48
0,3 °C
05:32
1016,1 hPa1008,9 hPa
02:12
1023,6 hPa
23:43
0,2 km/h
NO
1,7 km/h
12:22  
1,2 l/m²
7:46 Stunden
86 %80 %
14:07
90 %
06:07
9,2 klux20,0 klux
14:02
55 Min 
5.
Februar
-1,9 °C-5,7 °C
08:23
4,2 °C
15:35
1024,0 hPa1021,9 hPa
22:36
1026,2 hPa
08:23
1,0 km/h
O-NO
17,8 km/h
15:50  
---
35 Minuten
79 %63 %
15:10
87 %
09:53
26,1 klux48,2 klux
14:00
7:17 Std 
6.
Februar
-2,6 °C-5,3 °C
02:31
-0,8 °C
13:01
1014,7 hPa1011,0 hPa
16:16
1021,9 hPa
00:01
0,3 km/h
O
13,5 km/h
11:56  
---
50 Minuten
81 %77 %
13:56
83 %
06:36
7,6 klux28,6 klux
12:51
--- 
7.
Februar
-2,3 °C-6,7 °C
08:17
4,6 °C
14:47
1014,3 hPa1012,2 hPa
00:02
1017,6 hPa
22:33
1,2 km/h
NW
11,8 km/h
13:02  
---
80 %65 %
14:42
87 %
08:52
23,6 klux66,0 klux
11:37
5:30 Std 
8.
Februar
-3,9 °C-7,5 °C
23:44
1,2 °C
15:18
1019,9 hPa1017,6 hPa
00:03
1021,1 hPa
21:43
0,1 km/h
W
7,3 km/h
15:43  
---
83 %73 %
14:58
88 %
10:38
13,5 klux40,1 klux
14:03
1:35 Std 
9.
Februar
-3,5 °C-8,7 °C
03:09
-0,2 °C
21:04
1016,4 hPa1014,0 hPa
21:04
1020,4 hPa
02:14
2,9 km/h
W-SW
26,8 km/h
11:59  
---
85 %83 %
12:09
87 %
06:44
6,3 klux15,3 klux
09:29
--- 
10.
Februar
0,3 °C-2,0 °C
00:30
2,3 °C
16:10
1015,4 hPa1012,9 hPa
23:26
1017,1 hPa
11:30
5,7 km/h
W-SW
21,5 km/h
15:10  
---
83 %77 %
16:25
87 %
04:15
7,8 klux26,7 klux
16:00
16 Min 
11.
Februar
1,2 °C-0,5 °C
06:46
4,1 °C
13:40
1005,6 hPa1002,1 hPa
13:46
1013,0 hPa
00:26
17,1 km/h
W-SW
38,8 km/h
11:06  
3,0 l/m²
8:36 Stunden
84 %79 %
13:46
89 %
23:22
14,0 klux80,4 klux
13:01
1:30 Std 
12.
Februar
0,4 °C-1,5 °C
23:52
4,1 °C
14:52
1012,7 hPa1006,7 hPa
00:02
1017,3 hPa
23:52
12,2 km/h
W
32,6 km/h
13:02  
1,5 l/m²
5:50 Stunden
83 %66 %
16:57
91 %
02:27
21,6 klux66,5 klux
12:37
3:35 Std 
13.
Februar
-0,8 °C-5,1 °C
08:12
5,8 °C
14:47
1014,7 hPa1011,2 hPa
16:07
1017,7 hPa
05:27
3,1 km/h
SW
25,5 km/h
12:57  
---
72 %52 %
15:52
85 %
09:02
30,0 klux64,2 klux
13:57
7:25 Std 
14.
Februar
-2,3 °C-8,7 °C
07:38
4,9 °C
14:03
1017,3 hPa1013,6 hPa
00:03
1019,3 hPa
19:35
4,5 km/h
O-SO
36,8 km/h
23:41  
---
69 %50 %
14:03
85 %
10:13
31,0 klux54,3 klux
12:43
5:30 Std 
15.
Februar
0,5 °C-1,0 °C
09:21
2,5 °C
17:51
1015,6 hPa1013,8 hPa
14:21
1018,0 hPa
22:31
6,8 km/h
O-SO
25,0 km/h
02:41  
1,2 l/m²
6:50 Stunden
78 %66 %
00:01
89 %
22:46
6,3 klux14,7 klux
12:31
--- 
16.
Februar
1,9 °C-2,8 °C
23:47
7,4 °C
16:11
1024,7 hPa1018,0 hPa
00:11
1027,9 hPa
23:47
2,9 km/h
W
19,2 km/h
13:16  
---
2:35 Stunden
83 %66 %
16:16
92 %
10:26
27,1 klux70,9 klux
12:51
5:25 Std 
17.
Februar
-0,7 °C-3,4 °C
03:42
3,0 °C
14:37
1023,3 hPa1020,9 hPa
14:37
1026,9 hPa
01:17
0,3 km/h
SO
5,8 km/h
23:48  
---
30 Minuten
83 %76 %
16:32
88 %
06:07
10,9 klux21,7 klux
14:07
--- 
18.
Februar
-0,9 °C-6,5 °C
07:33
8,3 °C
14:43
1026,7 hPa1024,7 hPa
17:23
1028,4 hPa
07:33
1,7 km/h
O-SO
16,6 km/h
14:28  
---
2:50 Stunden
75 %49 %
15:43
88 %
10:43
31,9 klux56,6 klux
12:33
8:45 Std 
19.
Februar
-0,5 °C-3,2 °C
00:03
4,3 °C
13:08
1020,2 hPa1017,1 hPa
19:13
1024,8 hPa
00:03
1,9 km/h
O-SO
19,7 km/h
11:38  
---
76 %63 %
13:38
85 %
09:58
21,6 klux62,8 klux
12:53
3:15 Std 
20.
Februar
-0,8 °C-5,5 °C
05:14
6,7 °C
15:14
1017,7 hPa1015,2 hPa
15:19
1020,4 hPa
23:55
0,8 km/h
O-NO
14,5 km/h
21:24  
---
75 %56 %
15:19
85 %
08:09
25,6 klux63,5 klux
12:59
5:45 Std 
21.
Februar
0,6 °C-2,6 °C
07:20
7,2 °C
14:45
1021,9 hPa1020,3 hPa
14:40
1023,6 hPa
09:00
1,1 km/h
NO
18,3 km/h
11:20  
---
66 %50 %
14:50
78 %
08:05
30,8 klux56,9 klux
12:15
8:30 Std 
22.
Februar
-0,9 °C-3,5 °C
07:56
4,7 °C
15:56
1021,1 hPa1018,6 hPa
15:56
1022,7 hPa
08:41
4,2 km/h
NO
35,0 km/h
15:16  
---
64 %46 %
15:16
76 %
07:01
33,7 klux70,9 klux
13:01
8:45 Std 
23.
Februar
-2,1 °C-5,5 °C
06:57
4,5 °C
16:02
1020,3 hPa1018,6 hPa
16:02
1022,0 hPa
23:58
5,4 km/h
O-NO
37,0 km/h
14:32  
---
57 %38 %
16:12
68 %
04:42
34,0 klux58,2 klux
12:42
9:15 Std 
24.
Februar
-3,0 °C-7,4 °C
06:13
4,3 °C
13:48
1023,5 hPa1021,8 hPa
14:08
1026,1 hPa
23:44
5,2 km/h
NO
38,6 km/h
15:33  
---
56 %44 %
12:53
65 %
05:08
34,3 klux59,3 klux
12:23
8:50 Std 
25.
Februar
-4,4 °C-8,7 °C
07:19
2,2 °C
15:04
1027,1 hPa1025,1 hPa
15:04
1028,7 hPa
07:19
4,1 km/h
NO
27,8 km/h
11:39  
---
50 %31 %
15:39
65 %
08:04
35,4 klux59,8 klux
12:49
9:15 Std 
26.
Februar
-6,6 °C-9,8 °C
07:40
-3,5 °C
17:00
1025,7 hPa1022,1 hPa
23:16
1027,8 hPa
07:40
3,5 km/h
NO
25,5 km/h
16:10  
---
1:40 Stunden
63 %54 %
00:00
73 %
23:06
14,7 klux43,5 klux
09:50
1:15 Std 
27.
Februar
-6,9 °C-11,3 °C
07:56
-0,2 °C
15:01
1020,2 hPa1017,2 hPa
15:01
1022,5 hPa
03:26
4,0 km/h
O-NO
27,5 km/h
15:16  
---
2:50 Stunden
57 %35 %
15:41
73 %
00:01
36,1 klux61,5 klux
13:11
9:20 Std 
28.
Februar
-8,1 °C-12,3 °C
03:42
-1,0 °C
15:17
1019,3 hPa1015,2 hPa
23:33
1022,0 hPa
07:52
4,2 km/h
O
24,9 km/h
12:07  
---
55 %39 %
14:57
66 %
08:17
33,4 klux59,6 klux
12:32
8:35 Std 



Februar
2018

Temperatur

  

Luftdruck

  

Wind

  

Regen

  

Luftfeuchte

  

Helligkeit

Sonnen-
schein

Ø

Min

Max

Ø

Min

Max

Ø

Max

Max

Ø

Min

Max

Ø

Max

Max

-1,6 °C

-12,3 °C

03:42 Uhr
28.02.2018

8,3 °C

14:43 Uhr
18.02.2018

1017,5 hPa

1000,1 hPa

00:03 Uhr
01.02.2018

1028,7 hPa

07:19 Uhr
25.02.2018

4,5 km/h

W-SW

38,8 km/h

11:06 Uhr
11.02.2018

3,0 l/m²

8:36 Stunden
11.02.2018

74 %

31 %

15:39 Uhr
25.02.2018

92 %

10:26 Uhr
16.02.2018

21,8 klux

80,4 klux

13:01 Uhr
11.02.2018

9:20 Std

am
27.02.2018

Gesamt

Gesamt

10,9 l/m²

13 Tage
52:34 h

127:08 Std


Wetter-Diagramme Februar 2018     Heinzenberg / Taunus   
TemperaturLuftfeuchte
SolarstrahlungLuftdruck
HelligkeitSonnenschein
RegenmengeRegendauer
Wind-GeschwindigkeitWind-Richtung